Date,TemperatureHighF,TemperatureAvgF,TemperatureLowF,DewpointHighF,DewpointAvgF,DewpointLowF,HumidityHigh,HumidityAvg,HumidityLow,PressureMaxIn,PressureMinIn,WindSpeedMaxMPH,WindSpeedAvgMPH,GustSpeedMaxMPH,PrecipitationSumIn
2013-8-1,83.6,72.7,63.1,71.8,66.3,61.0,95,81,61,30.10,29.85,26,8,32,1.05
2013-8-2,79.3,71.5,64.4,69.6,66.2,62.1,95,84,69,30.00,29.81,19,7,25,0.33
2013-8-3,74.3,67.0,60.5,66.3,61.8,58.5,93,84,72,30.18,29.99,14,7,17,0.00
2013-8-4,76.2,68.6,61.1,70.7,64.5,58.2,96,87,79,30.17,29.99,13,7,17,0.19
2013-8-5,81.2,74.2,69.7,74.5,70.9,68.4,97,90,75,30.01,29.82,10,4,17,0.00
2013-8-6,86.8,76.0,66.8,76.4,71.5,65.5,98,86,69,29.88,29.78,12,4,17,0.00
2013-8-7,81.3,73.6,66.4,72.2,65.1,60.3,93,76,49,29.97,29.83,9,3,14,0.00
2013-8-8,75.7,69.4,64.0,67.9,64.9,61.7,95,86,74,30.03,29.93,8,3,9,0.00
2013-8-9,79.8,70.1,62.1,69.0,64.5,60.9,98,84,62,30.15,30.03,8,3,9,0.01
2013-8-10,79.8,69.9,60.2,68.9,62.9,57.5,92,79,60,30.19,30.06,11,5,16,0.00
2013-8-11,81.8,71.5,62.3,71.0,65.5,60.6,95,82,66,30.11,29.98,15,6,25,0.09
2013-8-12,82.7,71.7,61.1,69.5,65.0,59.3,96,80,58,30.07,29.96,16,3,20,0.28
2013-8-13,74.8,67.1,61.7,65.5,61.3,55.9,95,82,52,30.18,30.06,9,3,11,0.10
2013-8-14,72.6,64.9,57.8,64.9,60.0,55.3,93,85,69,30.18,30.05,10,4,14,0.05
2013-8-15,76.8,68.0,62.1,68.9,64.1,60.6,95,88,72,30.08,29.96,18,5,19,0.04
2013-8-16,69.5,64.6,59.8,64.8,61.6,58.6,96,90,83,30.16,30.07,8,4,11,0.00
2013-8-17,74.2,66.2,59.0,66.0,61.2,57.6,96,85,70,30.18,30.09,13,8,17,0.00
2013-8-18,76.6,67.2,58.2,65.8,60.9,55.4,91,81,65,30.13,30.03,14,8,16,0.00
2013-8-19,83.2,72.7,62.7,71.5,66.3,60.8,94,81,63,30.06,29.89,14,8,19,0.00
2013-8-20,85.2,75.0,65.9,74.2,68.6,64.1,95,81,64,29.94,29.86,13,8,18,0.00
2013-8-21,86.6,75.8,65.3,75.2,69.0,63.5,95,80,64,29.97,29.87,14,8,18,0.00
2013-8-22,81.1,73.7,67.0,72.3,68.5,65.5,96,84,68,30.08,29.91,13,6,20,0.28
2013-8-23,84.5,76.0,69.1,74.1,70.4,67.3,96,84,64,30.03,29.90,17,10,23,0.07
2013-8-24,88.2,79.7,72.5,76.1,71.8,68.7,89,78,62,29.99,29.91,20,13,23,0.00
2013-8-25,90.0,79.8,71.3,75.3,71.5,68.3,91,77,57,30.04,29.97,15,11,23,0.00
2013-8-26,90.8,79.8,70.6,74.4,70.2,67.2,90,74,55,30.03,29.90,14,10,19,0.00
2013-8-27,91.4,79.2,69.3,73.9,67.7,64.5,85,69,47,29.93,29.86,13,9,18,0.00
2013-8-28,87.8,75.3,62.9,73.9,67.2,60.5,93,77,53,29.98,29.90,10,5,11,0.00
2013-8-29,90.9,78.5,68.1,76.8,71.1,65.9,95,79,55,29.98,29.86,11,6,15,0.00
2013-8-30,92.0,79.0,66.2,78.7,71.6,63.2,92,79,61,29.90,29.81,6,3,10,0.00
2013-8-31,90.9,80.6,71.5,74.8,71.3,66.5,95,75,48,29.90,29.74,9,2,10,0.00